Location: Zagreb
(45.8150°N, 15.9819°E)
Time: 11:18:53
(UTC+02:00)

ACS3 Solar Sail - Visible Passes

Search period start: 08 May 2026 00:00
Search period end: 18 May 2026 00:00
Orbit: 890 x 951 km, 97.2° (Epoch: 7 May)

Date Brightness Start Highest point End Pass type
(mag) Time Alt. Az. Time Alt. Az. Time Alt. Az.
8 May 3.4 00:30:24 10° NE 00:34:30 19° E 00:35:19 18° E visible
8 May 1.7 02:11:25 10° N 02:17:25 75° WNW 02:18:48 54° SW visible
8 May 3.7 03:55:48 10° NNW 03:58:44 14° NW 04:01:41 10° W visible
9 May 3.2 00:38:39 10° NE 00:43:13 22° E 00:44:07 21° E visible
9 May 1.8 02:20:04 10° N 02:26:00 64° WNW 02:27:36 47° SW visible
9 May 3.8 04:05:04 10° NNW 04:07:11 12° NW 04:09:18 10° WNW visible
10 May 3.0 00:47:00 10° NE 00:51:58 26° E 00:52:55 25° ESE visible
10 May 2.0 02:28:46 10° N 02:34:36 54° WNW 02:36:24 40° WSW visible
10 May 4.0 04:15:23 10° NW 04:15:37 10° NW 04:15:52 10° NW visible
11 May 2.8 00:55:26 10° NNE 01:00:43 31° E 01:01:44 29° ESE visible
11 May 2.3 02:37:29 10° N 02:43:11 46° WNW 02:45:13 34° WSW visible
12 May 2.6 01:03:56 10° NNE 01:09:27 37° E 01:10:33 34° ESE visible
12 May 2.5 02:46:16 10° N 02:51:47 39° WNW 02:54:03 29° WSW visible
13 May 2.4 01:12:29 10° NNE 01:18:12 43° E 01:19:24 39° SE visible
13 May 2.7 02:55:04 10° N 03:00:23 34° WNW 03:02:54 24° WSW visible
14 May 2.1 01:21:04 10° NNE 01:26:57 51° E 01:28:16 44° SE visible
14 May 2.9 03:03:55 10° N 03:08:59 29° WNW 03:11:45 20° WSW visible
15 May 1.9 01:29:43 10° NNE 01:35:42 61° E 01:37:08 48° SSE visible
15 May 3.1 03:12:49 10° N 03:17:35 25° WNW 03:20:38 17° WSW visible
15 May 3.9 23:59:30 10° ENE 00:01:04 11° E 00:02:32 10° E visible
16 May 1.8 01:38:25 10° NNE 01:44:27 72° E 01:46:02 50° SSE visible
16 May 3.3 03:21:48 10° NNW 03:26:12 22° WNW 03:29:31 14° W visible
17 May 3.7 00:07:07 10° NE 00:09:59 14° E 00:11:27 13° E visible
17 May 1.7 01:47:08 10° NNE 01:53:13 84° ESE 01:54:56 50° S visible
17 May 3.5 03:30:49 10° NNW 03:34:48 19° WNW 03:38:26 11° W visible
